Location: Dunedin
(45.8670°S, 170.5000°E)
Time: 03:43:00
(UTC+13:00)

ISS - Visible Passes

Search period start: 23 September 2023 23:00
Search period end: 04 October 2023 00:00
Orbit: 414 x 422 km, 51.6° (Epoch: 23 September)

Date Brightness Start Highest point End Pass type
(mag) Time Alt. Az. Time Alt. Az. Time Alt. Az.
24 Sep -2.3 05:25:28 29° NNE 05:25:46 30° NE 05:28:50 10° ESE visible
25 Sep -0.9 04:39:28 15° ENE 04:39:28 15° ENE 04:40:27 10° E visible
25 Sep -3.7 06:12:24 23° WNW 06:14:22 77° SSW 06:17:51 10° ESE visible
26 Sep -3.7 05:26:17 71° NNE 05:26:21 72° NNE 05:29:49 10° ESE visible
27 Sep -1.4 04:40:05 24° E 04:40:05 24° E 04:41:40 10° ESE visible
27 Sep -2.9 06:13:00 19° W 06:15:10 43° SSW 06:18:30 10° ESE visible
28 Sep -3.5 05:26:44 54° SW 05:26:59 56° SSW 05:30:25 10° ESE visible
29 Sep -1.8 04:40:23 30° ESE 04:40:23 30° ESE 04:42:17 10° ESE visible
29 Sep -2.4 06:13:18 13° WSW 06:15:56 32° S 06:19:06 10° ESE visible
30 Sep -0.2 03:54:00 11° ESE 03:54:00 11° ESE 03:54:06 10° ESE visible
30 Sep -2.6 05:26:54 32° SW 05:27:38 36° SSW 05:30:53 10° ESE visible
01 Oct -1.9 04:40:27 31° SSE 04:40:27 31° SSE 04:42:40 10° ESE visible
01 Oct -2.1 06:13:31 10° WSW 06:16:38 30° S 06:19:44 10° ESE visible
02 Oct -0.4 03:53:59 13° ESE 03:53:59 13° ESE 03:54:27 10° ESE visible
02 Oct -2.2 05:26:53 22° SW 05:28:14 30° S 05:31:21 10° ESE visible
03 Oct -2.0 04:40:23 30° SSE 04:40:23 30° SSE 04:42:59 10° ESE visible
03 Oct -2.3 06:13:55 10° WSW 06:17:09 36° SSE 06:20:22 10° E visible
